This demonstration page uses our WeatherBlox Daily Observations layout. Learn more.

Left ArrowRight Arrow

30.21309, -93.2044

Hourly Observations for April 24, 2022

Temp ( °F °C ) Dew Point ( °F °C ) Humidity (%) Winds ( mph kmh ) Pressure ( in mb ) Visibility ( mi km ) Precip ( " mm )
12:15 am 00:15 Cloudy 73 23 69 20.7 87 87 SE 13 20 29.97 1015 10 16 0.00 0.00
12:35 am 00:35 Cloudy 73 23 69 20.6 86 86 SSE 13 20 29.97 1015 10 16 0.00 0.00
12:55 am 00:55 Cloudy 73 22.9 69 20.6 87 87 SSE 13 20 29.97 1015 10 16 0.00 0.00
1:15 am 01:15 Cloudy 74 23.1 69 20.6 86 86 SSE 14 22 29.96 1015 10 16 0.00 0.00
1:35 am 01:35 Cloudy 74 23.1 69 20.7 86 86 SSE 13 20 29.96 1015 10 16 0.00 0.00
1:55 am 01:55 Cloudy 74 23.2 69 20.7 86 86 SSE 12 19 29.96 1015 10 16 0.00 0.00
2:15 am 02:15 Cloudy 74 23.2 69 20.7 86 86 SSE 16 26 29.95 1014 10 16 0.00 0.00
2:35 am 02:35 Cloudy 73 22.7 69 20.8 89 89 SSE 14 22 29.95 1014 10 16 0.00 0.00
2:55 am 02:55 Cloudy 73 22.8 69 20.8 89 89 S 13 20 29.95 1014 10 16 0.00 0.00
3:15 am 03:15 Mostly Cloudy 73 22.6 69 20.6 89 89 SSE 13 20 29.95 1014 10 16 0.00 0.00
3:35 am 03:35 Cloudy 73 23 69 20.8 87 87 SSE 15 24 29.95 1014 10 16 0.00 0.00
3:55 am 03:55 Cloudy 74 23.1 69 20.6 86 86 S 18 30 29.95 1014 10 16 0.00 0.00
4:15 am 04:15 Cloudy 73 22.8 70 20.9 89 89 S 14 22 29.95 1014 10 16 0.00 0.00
4:35 am 04:35 Cloudy 73 22.7 69 20.8 89 89 S 13 20 29.95 1014 10 16 0.00 0.00
4:55 am 04:55 Cloudy 73 22.5 69 20.8 90 90 S 12 19 29.95 1014 10 16 0.00 0.00
5:15 am 05:15 Mostly Cloudy 72 22.2 69 20.5 90 90 S 10 17 29.95 1014 10 16 0.00 0.00
5:35 am 05:35 Mostly Cloudy 71 21.7 68 20.2 91 91 S 8 13 29.96 1015 10 16 0.00 0.00
6:00 am 06:00 Partly Cloudy 70 21 68 20 94 94 S 7 11 29.95 1014 10 16 0.00 0.00
6:50 am 06:50 Partly Cloudy with Mist and Fog 70 21 66 19 88 88 SSE 7 11 29.96 1015 5 8 0.00 0.00
7:50 am 07:50 Partly Cloudy with Mist and Fog 72 22 70 21 94 94 SSE 10 17 29.97 1015 7 11 0.00 0.00
8:54 am 08:54 Mostly Cloudy 75 24 70 21 83 83 S 17 28 29.99 1016 10 16 0.00 0.00
9:50 am 09:50 Mostly Cloudy 81 27 70 21 70 70 S 17 28 30.00 1016 10 16 0.00 0.00
10:46 am 10:46 Mostly Cloudy 81 27 70 21 70 70 S 21 33 30.01 1016 10 16 0.00 0.00
11:55 am 11:55 Mostly Cloudy 84 29 68 20 58 58 S 20 31 30.01 1016 10 16 0.00 0.00
12:47 pm 12:47 Mostly Cloudy 84 29 66 19 55 55 S 21 33 30.01 1016 10 16 0.00 0.00
1:47 pm 13:47 Mostly Cloudy 84 29 66 19 55 55 S 18 30 30.00 1016 10 16 0.00 0.00
2:50 pm 14:50 Mostly Cloudy 84 29 66 19 55 55 SSE 18 30 29.99 1016 10 16 0.00 0.00
3:55 pm 15:55 Mostly Cloudy 82 28 66 19 58 58 SSE 21 33 29.97 1015 10 16 0.00 0.00
4:45 pm 16:45 Mostly Cloudy 84 29 68 20 58 58 SSE 21 33 29.96 1015 10 16 0.00 0.00
5:45 pm 17:45 Mostly Cloudy 81 27 68 20 66 66 SSE 18 30 29.96 1015 10 16 0.00 0.00
6:55 pm 18:55 Partly Cloudy 79 26 70 21 74 74 SSE 17 28 29.96 1015 10 16 0.00 0.00
7:53 pm 19:53 Partly Cloudy 75 24 70 21 83 83 SSE 15 24 29.96 1015 10 16 0.00 0.00
8:55 pm 20:55 Partly Cloudy 75 24 70 21 83 83 SSE 15 24 29.97 1015 10 16 0.00 0.00
9:53 pm 21:53 Cloudy 73 23 70 21 89 89 SE 6 9 29.98 1015 10 16 0.00 0.00
10:15 pm 22:15 Cloudy 74 23.1 70 21.3 90 90 SE 8 13 29.98 1015 10 16 0.00 0.00
10:35 pm 22:35 Cloudy 74 23.3 71 21.5 90 90 SE 8 13 29.98 1015 10 16 0.00 0.00
10:55 pm 22:55 Cloudy 73 22.9 71 21.4 91 91 SE 8 13 29.98 1015 10 16 0.00 0.00
11:15 pm 23:15 Cloudy 73 23 71 21.6 92 92 SE 8 13 29.99 1016 10 16 0.00 0.00
11:35 pm 23:35 Cloudy 73 23 71 21.6 92 92 SSE 8 13 29.99 1016 10 16 0.00 0.00
11:55 pm 23:55 Cloudy 74 23.1 71 21.6 91 91 SSE 8 13 29.99 1016 10 16 0.00 0.00

Powered by AerisWeather